Weather History for PAOM - June, 2014

Change the Weather History Date:

Monday, June 23, 2014

  Actual Average Record
Temperature  
Mean Temperature 45 °F 50 °F  
Max Temperature 49 °F 57 °F 78 °F (1913)
Min Temperature 40 °F 43 °F 30 °F (1968)
Degree Days  
Heating Degree Days 20 15  
Month to date heating degree days 437 417  
Since 1 June heating degree days 437 417  
Since 1 July heating degree days 12223 13605  
Cooling Degree Days 0    
Month to date cooling degree days 0  
Year to date cooling degree days 0  
Since 1 June cooling degree days 0  
Moisture  
Dew Point 42 °F    
Average Humidity 0    
Maximum Humidity 0    
Minimum Humidity 0    
Precipitation  
Precipitation 0.00 in 0.04 in 1.37 in (1953)
Month to date precipitation 0.19 0.71  
Year to date precipitation 4.66 4.85  
Snow  
Snow 0.00 in 0.00 in 0.00 in (2015)
Month to date snowfall 0.0 0.3  
Since 1 June snowfall 0.0 0.3  
Since 1 July snowfall 72.3 75.7  
Snow Depth 0.00 in    
Sea Level Pressure  
Sea Level Pressure 29.68 in    
Wind  
Wind Speed 17 mph (West)    
Max Wind Speed 28 mph    
Max Gust Speed 32 mph    
Visibility 10 miles    
Events      
T = Trace of Precipitation, MM = Missing Value Source: NWS Daily Summary

Daily Weather History Graph

Daily Weather History Graph

Search for Another Location

Airport or City:

Trip Planner

Search our weather history database for the weather conditions in past years. The results will help you decide how hot, cold, wet, or windy it might be!

Date:

Astronomy

Jun. 23, 2014 Rise Set
Actual Time 4:20 AM AKDT 1:47 AM AKDT
Civil Twilight Sun does not set Sun does not set
Nautical Twilight Sun does not set Sun does not set
Astronomical Twilight Sun does not set Sun does not set
Moon 3:39 AM AKDT (6/23) 9:11 PM AKDT (6/23)
Length of Visible Light 24h 00m
Length of Day
21h 27m
Waning Crescent, 12% of the Moon is Illuminated
Jun 23
Waning Crescent
Jun 27
New
Jul 5
First Quarter
Jul 12
Full
Jul 18
Last Quarter

Hourly Weather History & Observations

Time (AKDT) Temp. Windchill Dew Point Humidity Pressure Visibility Wind Dir Wind Speed Gust Speed Precip Events Conditions
12:53 AM 48.9 °F - 46.0 °F 90% 29.61 in 10.0 mi West 13.8 mph - N/A   Partly Cloudy
1:53 AM 48.0 °F - 45.0 °F 89% 29.61 in 10.0 mi West 9.2 mph - N/A   Partly Cloudy
2:53 AM 46.0 °F 41.0 °F 45.0 °F 96% 29.62 in 10.0 mi West 10.4 mph - N/A   Clear
3:53 AM 45.0 °F 38.9 °F 44.1 °F 97% 29.63 in 10.0 mi West 12.7 mph - N/A   Partly Cloudy
4:53 AM 43.0 °F 40.3 °F 41.0 °F 93% 29.63 in 10.0 mi WNW 4.6 mph - N/A   Partly Cloudy
5:53 AM 42.1 °F - 39.9 °F 92% 29.64 in 10.0 mi Calm Calm - N/A   Scattered Clouds
6:30 AM 43.0 °F 41.3 °F 41.0 °F 93% 29.64 in 10.0 mi WNW 3.5 mph - N/A   Scattered Clouds
6:53 AM 42.1 °F 40.2 °F 41.0 °F 96% 29.64 in 10.0 mi NW 3.5 mph - N/A   Scattered Clouds
7:53 AM 46.9 °F - 43.0 °F 86% 29.65 in 10.0 mi West 11.5 mph - N/A   Scattered Clouds
8:03 AM 45.0 °F 39.3 °F 44.1 °F 97% 29.65 in 7.0 mi West 11.5 mph - N/A   Mostly Cloudy
8:04 AM 45.0 °F 38.9 °F 44.1 °F 97% 29.65 in 7.0 mi West 12.7 mph - N/A   Mostly Cloudy
8:44 AM 46.9 °F - 45.0 °F 93% 29.65 in 10.0 mi WSW 13.8 mph - N/A   Scattered Clouds
8:53 AM 46.0 °F 39.9 °F 44.1 °F 93% 29.66 in 10.0 mi West 13.8 mph - N/A   Mostly Cloudy
9:17 AM 46.0 °F 39.9 °F 44.1 °F 93% 29.65 in 10.0 mi West 13.8 mph - N/A   Scattered Clouds
9:35 AM 46.0 °F 39.3 °F 44.1 °F 93% 29.65 in 10.0 mi WSW 16.1 mph - N/A   Mostly Cloudy
9:53 AM 46.0 °F 39.0 °F 44.1 °F 93% 29.66 in 10.0 mi West 17.3 mph - N/A   Mostly Cloudy
10:20 AM 45.0 °F 37.9 °F 43.0 °F 93% 29.66 in 10.0 mi West 16.1 mph - N/A   Scattered Clouds
10:53 AM 46.0 °F 38.8 °F 44.1 °F 93% 29.66 in 10.0 mi West 18.4 mph - N/A   Scattered Clouds
11:53 AM 46.4 °F 38.7 °F 42.8 °F 87% 29.66 in 10.0 mi WSW 20.7 mph - N/A   Scattered Clouds
12:53 PM 46.4 °F 38.5 °F 42.8 °F 87% 29.67 in 10.0 mi WSW 21.9 mph - N/A   Scattered Clouds
1:53 PM 46.4 °F 38.3 °F 42.8 °F 87% 29.69 in 10.0 mi WSW 23.0 mph - N/A   Scattered Clouds
2:53 PM 46.0 °F 37.6 °F 41.0 °F 83% 29.70 in 10.0 mi West 24.2 mph - N/A   Mostly Cloudy
3:53 PM 46.0 °F 37.0 °F 41.0 °F 83% 29.70 in 10.0 mi WSW 27.6 mph - N/A   Mostly Cloudy
4:53 PM 46.0 °F 37.4 °F 41.0 °F 83% 29.71 in 10.0 mi WSW 25.3 mph - N/A   Mostly Cloudy
5:53 PM 45.0 °F 36.0 °F 41.0 °F 86% 29.72 in 10.0 mi WSW 25.3 mph - N/A   Mostly Cloudy
6:53 PM 45.0 °F 36.4 °F 41.0 °F 86% 29.73 in 10.0 mi WSW 23.0 mph - N/A   Mostly Cloudy
7:53 PM 44.1 °F 35.7 °F 41.0 °F 89% 29.75 in 10.0 mi West 20.7 mph - N/A   Overcast
8:53 PM 44.1 °F 35.7 °F 41.0 °F 89% 29.75 in 10.0 mi WSW 20.7 mph - N/A   Overcast
9:53 PM 42.1 °F 32.8 °F 41.0 °F 96% 29.76 in 10.0 mi West 21.9 mph - N/A   Overcast
10:11 PM 43.0 °F 34.5 °F 41.0 °F 93% 29.75 in 9.0 mi WSW 19.6 mph - N/A   Overcast
10:53 PM 42.1 °F 33.1 °F 39.9 °F 92% 29.76 in 10.0 mi WSW 20.7 mph - N/A   Overcast
11:53 PM 42.1 °F 33.6 °F 39.9 °F 92% 29.78 in 10.0 mi West 18.4 mph - N/A   Overcast